Shawnee, OK

4:42 AM CDT on May 22, 2018 (GMT -0500)
Shawnee Municipal

Weather History for KSNL - April, 2013

Change the Weather History Date:

Tuesday, April 23, 2013

  Actual Average (KTIK) Record (KTIK)
Temperature  
Mean Temperature 52 °F -  
Max Temperature 68 °F 68 °F 89 °F (2006)
Min Temperature 37 °F 49 °F 34 °F (2013)
Degree Days  
Heating Degree Days 12    
Growing Degree Days 2 (Base 50)    
Moisture  
Dew Point 44 °F    
Average Humidity 94    
Maximum Humidity 100    
Minimum Humidity 64    
Precipitation  
Precipitation 0.00 in - - ()
Sea Level Pressure  
Sea Level Pressure 30.04 in    
Wind  
Wind Speed 15 mph (North)    
Max Wind Speed 23 mph    
Max Gust Speed 30 mph    
Visibility 7 miles    
Events Rain , Thunderstorm    
Averages and records for this station are not official NWS values.
T = Trace of Precipitation, MM = Missing Value Source: NWS Daily Summary

Daily Weather History Graph

Daily Weather History Graph

Search for Another Location

Airport or City:

Astronomy

Apr. 23, 2013 Rise Set
Actual Time 6:45 AM CDT 8:07 PM CDT
Civil Twilight 6:18 AM CDT 8:34 PM CDT
Nautical Twilight 5:46 AM CDT 9:06 PM CDT
Astronomical Twilight 5:13 AM CDT 9:39 PM CDT
Moon 6:07 PM CDT (4/23) 5:08 AM CDT (4/23)
Length of Visible Light 14h 15m
Length of Day
13h 22m
Waxing Gibbous, 94% of the Moon is Illuminated
Apr 23
Waxing Gibbous
Apr 25
Full
May 2
Last Quarter
May 9
New
May 17
First Quarter

Hourly Weather History & Observations

Time (CDT) Temp. Windchill Dew Point Humidity Pressure Visibility Wind Dir Wind Speed Gust Speed Precip Events Conditions
12:15 AM 68.0 °F - 59.0 °F 73% 29.89 in 10.0 mi ESE 11.5 mph - N/A Thunderstorm Scattered Clouds
12:35 AM 66.2 °F - 57.2 °F 73% 29.90 in 10.0 mi ESE 4.6 mph - N/A Thunderstorm Scattered Clouds
1:15 AM 66.2 °F - 59.0 °F 78% 29.89 in 10.0 mi ESE 12.7 mph - N/A Rain , Thunderstorm Light Thunderstorms and Rain
1:35 AM 66.2 °F - 55.4 °F 68% 29.85 in 10.0 mi SE 16.1 mph - N/A   Scattered Clouds
1:55 AM 66.2 °F - 55.4 °F 68% 29.85 in 10.0 mi SE 11.5 mph - N/A   Clear
2:15 AM 68.0 °F - 55.4 °F 64% 29.86 in 10.0 mi SSE 12.7 mph - N/A   Clear
2:35 AM 66.2 °F - 55.4 °F 68% 29.85 in 10.0 mi SSE 11.5 mph - N/A   Clear
2:55 AM 66.2 °F - 55.4 °F 68% 29.84 in 10.0 mi SSE 10.4 mph 16.1 mph N/A   Clear
3:15 AM 66.2 °F - 55.4 °F 68% 29.83 in 10.0 mi SSE 11.5 mph - N/A   Clear
3:35 AM 66.2 °F - 55.4 °F 68% 29.84 in 10.0 mi South 8.1 mph - N/A   Mostly Cloudy
3:55 AM 66.2 °F - 57.2 °F 73% 29.87 in 10.0 mi WNW 8.1 mph - N/A   Overcast
4:15 AM 59.0 °F - 55.4 °F 88% 29.89 in 10.0 mi NNW 17.3 mph 23.0 mph N/A   Overcast
4:35 AM 51.8 °F - 51.8 °F 100% 29.89 in 10.0 mi North 19.6 mph 24.2 mph N/A   Overcast
4:55 AM 51.8 °F - 50.0 °F 94% 29.92 in 10.0 mi NNW 15.0 mph 24.2 mph N/A   Overcast
5:15 AM 48.2 °F - 48.2 °F 100% 29.92 in 10.0 mi NNW 16.1 mph - N/A   Overcast
5:35 AM 46.4 °F 38.5 °F 46.4 °F 100% 29.92 in 10.0 mi North 21.9 mph 25.3 mph N/A   Overcast
5:55 AM 44.6 °F 37.4 °F 44.6 °F 100% 29.93 in 10.0 mi North 16.1 mph 24.2 mph N/A   Overcast
6:15 AM 44.6 °F 37.4 °F 44.6 °F 100% 29.93 in 5.0 mi North 16.1 mph 25.3 mph N/A   Overcast
6:35 AM 44.6 °F 37.4 °F 44.6 °F 100% 29.94 in 3.0 mi NNW 16.1 mph 24.2 mph N/A Rain Light Rain
6:55 AM 44.6 °F 38.1 °F 44.6 °F 100% 29.94 in 3.0 mi NNW 13.8 mph - N/A Rain Light Rain
7:15 AM 42.8 °F 35.1 °F 42.8 °F 100% 29.96 in 2.0 mi NNW 16.1 mph 21.9 mph N/A Rain Light Rain
7:35 AM 42.8 °F 33.8 °F 42.8 °F 100% 29.97 in 1.8 mi North 21.9 mph 25.3 mph N/A Rain Light Rain
7:55 AM 42.8 °F 35.1 °F 42.8 °F 100% 29.99 in 2.0 mi North 16.1 mph 29.9 mph N/A Rain Light Rain
8:15 AM 42.8 °F 34.3 °F 42.8 °F 100% 29.99 in 2.0 mi North 19.6 mph 26.5 mph N/A Rain Light Rain
8:35 AM 42.8 °F 34.3 °F 42.8 °F 100% 30.00 in 2.5 mi North 19.6 mph 25.3 mph N/A Rain Light Rain
8:55 AM 42.8 °F 34.5 °F 42.8 °F 100% 30.01 in 2.5 mi North 18.4 mph - N/A Rain Light Rain
9:15 AM 42.8 °F 34.0 °F 42.8 °F 100% 30.02 in 2.5 mi North 20.7 mph 25.3 mph N/A Rain Light Rain
9:35 AM 42.8 °F 33.5 °F 42.8 °F 100% 30.02 in 2.5 mi North 23.0 mph 26.5 mph N/A Rain Light Rain
9:55 AM 41.0 °F 32.2 °F 41.0 °F 100% 30.03 in 2.5 mi North 18.4 mph 26.5 mph N/A Rain Light Rain
10:15 AM 42.8 °F 34.3 °F 42.8 °F 100% 30.04 in 3.0 mi North 19.6 mph 24.2 mph N/A   Overcast
10:35 AM 41.0 °F 31.9 °F 41.0 °F 100% 30.05 in 2.5 mi North 19.6 mph 26.5 mph N/A   Overcast
10:55 AM 41.0 °F 32.5 °F 41.0 °F 100% 30.07 in 2.5 mi North 17.3 mph 23.0 mph N/A   Overcast
11:15 AM 41.0 °F 32.5 °F 41.0 °F 100% 30.08 in 4.0 mi North 17.3 mph 26.5 mph N/A   Overcast
11:35 AM 41.0 °F 32.5 °F 41.0 °F 100% 30.08 in 2.0 mi North 17.3 mph 21.9 mph N/A   Overcast
11:55 AM 41.0 °F 31.6 °F 41.0 °F 100% 30.09 in 2.5 mi North 20.7 mph 26.5 mph N/A   Overcast
12:15 PM 41.0 °F 32.5 °F 41.0 °F 100% 30.09 in 10.0 mi North 17.3 mph 26.5 mph N/A   Overcast
12:35 PM 41.0 °F 32.2 °F 41.0 °F 100% 30.09 in 5.0 mi North 18.4 mph 25.3 mph N/A   Overcast
12:55 PM 41.0 °F 32.8 °F 41.0 °F 100% 30.09 in 3.0 mi North 16.1 mph 24.2 mph N/A   Overcast
1:15 PM 41.0 °F 32.5 °F 41.0 °F 100% 30.09 in 3.0 mi North 17.3 mph 21.9 mph N/A   Overcast
1:35 PM 41.0 °F 32.5 °F 41.0 °F 100% 30.09 in 4.0 mi North 17.3 mph 21.9 mph N/A   Overcast
1:55 PM 41.0 °F 31.9 °F 41.0 °F 100% 30.09 in 2.5 mi North 19.6 mph 24.2 mph N/A   Overcast
2:15 PM 41.0 °F 31.9 °F 41.0 °F 100% 30.09 in 1.8 mi NNW 19.6 mph 25.3 mph N/A Rain Light Rain
2:35 PM 41.0 °F 32.5 °F 41.0 °F 100% 30.09 in 5.0 mi NNW 17.3 mph 24.2 mph N/A   Overcast
2:55 PM 41.0 °F 32.8 °F 41.0 °F 100% 30.09 in 10.0 mi North 16.1 mph 20.7 mph N/A   Overcast
3:15 PM 41.0 °F 31.9 °F 41.0 °F 100% 30.09 in 7.0 mi North 19.6 mph - N/A   Overcast
3:35 PM 41.0 °F 32.2 °F 41.0 °F 100% 30.09 in 3.0 mi North 18.4 mph 25.3 mph N/A   Overcast
3:55 PM 41.0 °F 32.2 °F 41.0 °F 100% 30.09 in 5.0 mi North 18.4 mph - N/A   Overcast
4:15 PM 41.0 °F 32.5 °F 41.0 °F 100% 30.10 in 10.0 mi North 17.3 mph 25.3 mph N/A   Overcast
4:35 PM 41.0 °F 31.9 °F 41.0 °F 100% 30.10 in 7.0 mi North 19.6 mph 25.3 mph N/A   Overcast
4:55 PM 41.0 °F 32.5 °F 39.2 °F 93% 30.10 in 10.0 mi North 17.3 mph 24.2 mph N/A   Overcast
5:35 PM 41.0 °F 33.1 °F 41.0 °F 100% 30.11 in 7.0 mi North 15.0 mph 24.2 mph N/A   Overcast
5:55 PM 41.0 °F 31.6 °F 39.2 °F 93% 30.12 in 5.0 mi North 20.7 mph 27.6 mph N/A   Overcast
6:15 PM 39.2 °F 29.8 °F 39.2 °F 100% 30.12 in 5.0 mi North 18.4 mph 25.3 mph N/A   Overcast
6:35 PM 39.2 °F 29.8 °F 39.2 °F 100% 30.12 in 4.0 mi North 18.4 mph 21.9 mph N/A   Overcast
6:55 PM 37.4 °F 28.2 °F 37.4 °F 100% 30.14 in 4.0 mi North 16.1 mph - N/A   Overcast
7:15 PM 37.4 °F 28.2 °F 37.4 °F 100% 30.14 in 4.0 mi North 16.1 mph 19.6 mph N/A   Overcast
7:35 PM 37.4 °F 28.2 °F 37.4 °F 100% 30.15 in 10.0 mi North 16.1 mph 21.9 mph N/A   Overcast
7:55 PM 39.2 °F 31.6 °F 37.4 °F 93% 30.15 in 10.0 mi North 12.7 mph 23.0 mph N/A   Overcast
8:15 PM 37.4 °F 27.2 °F 37.4 °F 100% 30.15 in 10.0 mi North 19.6 mph 24.2 mph N/A   Overcast
8:35 PM 37.4 °F 27.2 °F 37.4 °F 100% 30.15 in 10.0 mi North 19.6 mph 26.5 mph N/A   Overcast
8:55 PM 37.4 °F 27.8 °F 37.4 °F 100% 30.16 in 10.0 mi North 17.3 mph 25.3 mph N/A   Overcast
9:15 PM 37.4 °F 28.5 °F 37.4 °F 100% 30.18 in 10.0 mi North 15.0 mph 21.9 mph N/A   Overcast
9:35 PM 37.4 °F 28.2 °F 37.4 °F 100% 30.20 in 10.0 mi North 16.1 mph 21.9 mph N/A   Overcast
9:55 PM 37.4 °F 28.5 °F 37.4 °F 100% 30.22 in 10.0 mi NNW 15.0 mph - N/A   Overcast
10:15 PM 37.4 °F 27.8 °F 37.4 °F 100% 30.22 in 10.0 mi North 17.3 mph 21.9 mph N/A   Overcast
10:35 PM 37.4 °F 26.9 °F 37.4 °F 100% 30.23 in 10.0 mi North 20.7 mph 24.2 mph N/A   Overcast
10:55 PM 37.4 °F 28.2 °F 37.4 °F 100% 30.24 in 10.0 mi North 16.1 mph 23.0 mph N/A   Overcast
11:15 PM 37.4 °F 28.2 °F 35.6 °F 93% 30.24 in 10.0 mi NNW 16.1 mph 21.9 mph N/A   Overcast
11:35 PM 37.4 °F 28.9 °F 35.6 °F 93% 30.24 in 10.0 mi North 13.8 mph - N/A   Overcast
11:55 PM 37.4 °F 28.5 °F 35.6 °F 93% 30.24 in 10.0 mi North 15.0 mph 20.7 mph N/A   Overcast